Home   Weather   Szczecin   Past weeks

Flag for Poland Past Weather in Szczecin, Poland — Yesterday and Last 2 Weeks

Now
36 °F

Overcast.


Feels Like: 31 °F
Forecast: 30 / 35 °F
Wind: 6 mph from Southwest

Location: Szczecin Airport

Current Time: Dec 4, 2016 at 9:40:00 pm

Latest Report: Dec 4, 2016 at 9:00 pm


Visibility: N/A

Pressure: 30.39 "Hg

Humidity: 87%

Dew Point: 32 °F

Location of SzczecinLocation

Past Weather in Szczecin — Graph

°F

Szczecin Temperature Yesterday

Maximum temperature yesterday: 37 °F (at 1:00 pm)
Minimum temperature yesterday: 27 °F (at 6:30 am)
Average temperature yesterday: 31 °F

High & Low Weather Summary for the Past Weeks

 TemperatureHumidityPressure
High52 °F (Nov 21, 2:00 pm)100% (Nov 19, 8:00 pm)30.45 "Hg (Nov 19, 8:00 pm)
Low25 °F (Nov 29, 1:00 am)56% (Nov 27, 7:30 pm)29.53 "Hg (Dec 1, 10:30 pm)
Average38 °F88%30.06 "Hg
* Reported Nov 19 8:00 pm — Dec 4 8:00 pm, Szczecin, Weather by CustomWeather, © 2016

Note: Actual official high and low records may vary slightly from our data, if they occured in-between our weather recording intervals... More about our weather records

Advertising

Szczecin Weather History for the Previous 24 Hours

Scroll right to see more
 ConditionsComfort  
Time TempWeatherWind HumidityBarometerVisibility
8:00 pm
Sun, Dec 4
36 °FPassing clouds.3 mph87%30.39 "HgN/A
7:30 pm36 °FPassing clouds.3 mph87%30.39 "HgN/A
7:00 pm36 °FOvercast.3 mph87%30.39 "HgN/A
6:30 pm36 °FPassing clouds.3 mph87%30.39 "HgN/A
6:00 pm36 °FPassing clouds.5 mph87%30.39 "Hg6 mi
5:30 pm36 °FPassing clouds.6 mph87%30.39 "Hg6 mi
5:00 pm36 °FPassing clouds.3 mph87%30.39 "Hg5 mi
4:30 pm34 °FPassing clouds.5 mph93%30.36 "Hg5 mi
4:00 pm34 °FPassing clouds.5 mph93%30.36 "Hg5 mi
3:30 pm36 °FPartly sunny.5 mph87%30.39 "Hg5 mi
3:00 pm36 °FBroken clouds.6 mph87%30.36 "Hg5 mi
2:30 pm36 °FPartly sunny.6 mph87%30.36 "Hg5 mi
2:00 pm36 °FOvercast.2 mph93%30.39 "Hg5 mi
1:30 pm36 °FOvercast.6 mph93%30.36 "Hg4 mi
1:00 pm34 °FOvercast.5 mph100%30.36 "Hg4 mi
12:30 pm34 °FPartly sunny.5 mph100%30.36 "Hg4 mi
12:00 pm34 °FOvercast.5 mph93%30.36 "Hg4 mi
11:30 am34 °FFog.5 mph93%30.36 "Hg3 mi
11:00 am32 °FIce fog.3 mph100%30.39 "Hg3 mi
10:30 am32 °FIce fog.2 mph100%30.36 "Hg2 mi
10:00 am30 °FIce fog.2 mph100%30.36 "Hg3 mi
9:30 am28 °FIce fog.3 mph100%30.36 "Hg2 mi
9:00 am27 °FIce fog.2 mph100%30.36 "Hg2 mi
8:30 am27 °FIce fog.2 mph100%30.36 "Hg1 mi
8:00 am27 °FIce fog.1 mph100%30.33 "Hg1 mi
7:30 am27 °FIce fog.2 mph100%30.33 "Hg1 mi
7:00 am27 °FIce fog.1 mph100%30.33 "Hg1 mi
6:30 am27 °FIce fog.3 mph100%30.33 "Hg1 mi
6:00 am28 °FIce fog.2 mph93%30.33 "Hg2 mi
5:30 am28 °FIce fog.2 mph100%30.33 "Hg2 mi
5:00 am28 °FIce fog.3 mph100%30.33 "Hg2 mi
4:30 am30 °FPassing clouds.2 mph93%30.30 "Hg4 mi
4:00 am30 °FIce fog.3 mph93%30.30 "Hg3 mi
3:30 am30 °FOvercast.3 mph93%30.30 "Hg4 mi
3:00 am30 °FOvercast.2 mph93%30.30 "Hg4 mi
2:30 am30 °FOvercast.2 mph93%30.30 "Hg4 mi
2:00 am28 °FIce fog.3 mph100%30.30 "Hg3 mi
1:30 am28 °FPassing clouds.3 mph100%30.30 "Hg4 mi
1:00 am28 °FOvercast.3 mph100%30.30 "Hg4 mi
12:30 am28 °FIce fog.3 mph100%30.30 "Hg2 mi
12:00 am28 °FIce fog.3 mph100%30.30 "Hg1 mi
11:30 pm
Sat, Dec 3
28 °FIce fog.2 mph100%30.27 "Hg2 mi
11:00 pm28 °FIce fog.2 mph93%30.27 "Hg2 mi
10:30 pm30 °FIce fog.5 mph93%30.27 "Hg3 mi
10:00 pm28 °FClear.2 mph93%30.27 "Hg5 mi
9:30 pm28 °FClear.2 mph93%30.27 "Hg10 mi
9:00 pm28 °FClear.2 mph93%30.27 "Hg10 mi
Weather by CustomWeather, © 2016

See weather overviewHow to use our weather pages